TimeEDT,TemperatureF,Dew PointF,Humidity,Sea Level PressureIn,VisibilityMPH,Wind Direction,Wind SpeedMPH,Gust SpeedMPH,PrecipitationIn,Events,Conditions,WindDirDegrees,DateUTC
12:56 AM,73.0,70.0,90,29.96,5.0,Calm,Calm,-,N/A,,Clear,0,2013-09-12 04:56:00
1:56 AM,73.0,70.0,90,29.94,4.0,Calm,Calm,-,N/A,,Clear,0,2013-09-12 05:56:00
2:56 AM,71.1,69.1,93,29.94,4.0,Calm,Calm,-,N/A,,Clear,0,2013-09-12 06:56:00
3:56 AM,73.0,70.0,90,29.93,5.0,South,3.5,-,N/A,,Scattered Clouds,170,2013-09-12 07:56:00
4:56 AM,72.0,69.1,91,29.93,4.0,Calm,Calm,-,N/A,,Clear,0,2013-09-12 08:56:00
5:56 AM,72.0,69.1,91,29.92,5.0,South,3.5,-,N/A,,Partly Cloudy,180,2013-09-12 09:56:00
6:48 AM,69.8,68.0,94,29.94,2.5,SSE,3.5,-,N/A,,Partly Cloudy,160,2013-09-12 10:48:00
6:56 AM,71.1,68.0,90,29.92,2.5,Calm,Calm,-,N/A,,Scattered Clouds,0,2013-09-12 10:56:00
7:56 AM,73.9,70.0,87,29.91,2.5,Calm,Calm,-,N/A,,Clear,0,2013-09-12 11:56:00
8:56 AM,75.9,70.0,82,29.90,2.5,South,4.6,-,N/A,,Haze,170,2013-09-12 12:56:00
9:16 AM,77.0,69.8,78,29.91,4.0,South,4.6,-,N/A,,Haze,190,2013-09-12 13:16:00
9:56 AM,81.0,71.1,72,29.88,5.0,South,5.8,-,N/A,,Haze,180,2013-09-12 13:56:00
10:56 AM,81.0,71.1,72,29.87,5.0,SSE,9.2,-,N/A,,Haze,150,2013-09-12 14:56:00
11:56 AM,82.9,71.1,67,29.85,6.0,South,9.2,-,N/A,,Haze,170,2013-09-12 15:56:00
12:56 PM,82.9,70.0,65,29.83,4.0,South,11.5,-,N/A,,Mostly Cloudy,180,2013-09-12 16:56:00
1:22 PM,80.6,69.8,70,29.86,4.0,WSW,15.0,21.9,N/A,Thunderstorm,Mostly Cloudy,250,2013-09-12 17:22:00
1:56 PM,75.9,64.0,67,29.83,10.0,WSW,3.5,-,0.00,,Mostly Cloudy,240,2013-09-12 17:56:00
2:56 PM,77.0,66.0,69,29.79,10.0,South,6.9,-,0.00,,Mostly Cloudy,170,2013-09-12 18:56:00
3:56 PM,80.1,71.1,74,29.73,5.0,South,5.8,-,N/A,,Haze,170,2013-09-12 19:56:00
4:56 PM,78.1,69.1,74,29.73,7.0,South,11.5,-,N/A,,Mostly Cloudy,170,2013-09-12 20:56:00
5:56 PM,77.0,69.1,76,29.71,6.0,SSE,8.1,-,N/A,,Haze,160,2013-09-12 21:56:00
6:12 PM,77.0,69.8,78,29.73,7.0,WNW,4.6,-,0.00,Rain-Thunderstorm,Light Thunderstorms and Rain,290,2013-09-12 22:12:00
6:56 PM,72.0,69.1,91,29.70,6.0,NE,4.6,-,0.08,Rain-Thunderstorm,Light Thunderstorms and Rain,50,2013-09-12 22:56:00
7:19 PM,71.6,69.8,94,29.75,0.5,West,11.5,20.7,0.03,Rain-Thunderstorm,Heavy Thunderstorms and Rain,270,2013-09-12 23:19:00
8:57 PM,68.0,66.2,94,29.73,6.0,Calm,Calm,-,N/A,,Overcast,0,2013-09-13 00:57:00
9:55 PM,69.8,66.2,88,29.73,6.0,Calm,Calm,-,N/A,,Mostly Cloudy,0,2013-09-13 01:55:00
10:56 PM,68.0,68.0,100,29.70,0.8,Calm,Calm,-,N/A,,Mostly Cloudy,0,2013-09-13 02:56:00
11:56 PM,68.0,66.9,96,29.70,0.5,Calm,Calm,-,0.12,Rain,Light Rain,0,2013-09-13 03:56:00